Weather History for Olean, NY

Change the Weather History Date:

Friday, September 6, 2013

  Actual Average (KBFD) Record (KBFD)
Temperature  
Mean Temperature 50 °F 60 °F  
Max Temperature 64 °F 72 °F 85 °F (1998)
Min Temperature 37 °F 48 °F 30 °F (1976)
Degree Days  
Heating Degree Days 14 2  
Month to date heating degree days 12  
Since 1 July heating degree days 165  
Cooling Degree Days 0 1  
Month to date cooling degree days 6  
Year to date cooling degree days 183  
Moisture  
Dew Point 39 °F    
Average Humidity 66    
Maximum Humidity 100    
Minimum Humidity 34    
Precipitation  
Precipitation 0.00 in 0.12 in 0.83 in (1979)
Month to date precipitation 0.77  
Year to date precipitation 30.72  
Sea Level Pressure  
Sea Level Pressure 30.24 in    
Wind  
Wind Speed 1 mph (SSW)    
Max Wind Speed 8 mph    
Max Gust Speed -    
Visibility 10 miles    
Events      
T = Trace of Precipitation, MM = Missing Value Source: NWS Daily Summary

Daily Weather History Graph

Daily Weather History Graph

Search for Another Location

Airport:

Trip Planner

Search our weather history database for the weather conditions in past years. The results will help you decide how hot, cold, wet, or windy it might be!

Date:

Astronomy

Sep. 06, 2013 Rise Set
Actual Time 6:44 AM EDT 7:38 PM EDT
Civil Twilight 6:15 AM EDT 8:06 PM EDT
Nautical Twilight 5:41 AM EDT 8:40 PM EDT
Astronomical Twilight 5:06 AM EDT 9:15 PM EDT
Moon 7:57 AM EDT (9/6) 7:58 PM EDT (9/6)
Length of Visible Light 13h 51m
Length of Day
12h 54m
New Moon, 1% of the Moon is Illuminated
Sep 6
New Moon
Sep 12
First Quarter
Sep 19
Full
Sep 26
Last Quarter
Oct 4
New

Hourly Weather History & Observations

Time (EDT) Temp. Windchill Dew Point Humidity Pressure Visibility Wind Dir Wind Speed Gust Speed Precip Events Conditions
12:15 AM 44.6 °F - 37.4 °F 76% 30.25 in 10.0 mi Calm Calm - N/A   Clear
12:35 AM 44.6 °F 43.1 °F 35.6 °F 71% 30.25 in 10.0 mi NE 3.5 mph - N/A   Clear
12:55 AM 44.6 °F - 35.6 °F 71% 30.25 in 10.0 mi Calm Calm - N/A   Clear
1:15 AM 44.6 °F 43.1 °F 33.8 °F 66% 30.25 in 10.0 mi NNE 3.5 mph - N/A   Clear
1:35 AM 44.6 °F - 33.8 °F 66% 30.25 in 10.0 mi Calm Calm - N/A   Clear
1:55 AM 41.0 °F - 35.6 °F 81% 30.25 in 10.0 mi Calm Calm - N/A   Clear
2:15 AM 41.0 °F - 37.4 °F 87% 30.25 in 10.0 mi Calm Calm - N/A   Clear
2:35 AM 42.8 °F - 35.6 °F 76% 30.25 in 10.0 mi Calm Calm - N/A   Clear
2:55 AM 41.0 °F - 37.4 °F 87% 30.25 in 10.0 mi Calm Calm - N/A   Clear
3:15 AM 41.0 °F - 37.4 °F 87% 30.25 in 10.0 mi Calm Calm - N/A   Clear
3:35 AM 41.0 °F - 37.4 °F 87% 30.25 in 10.0 mi Calm Calm - N/A   Clear
3:55 AM 41.0 °F - 37.4 °F 87% 30.25 in 10.0 mi Calm Calm - N/A   Clear
4:15 AM 41.0 °F - 37.4 °F 87% 30.26 in 10.0 mi Calm Calm - N/A   Clear
4:35 AM 41.0 °F - 37.4 °F 87% 30.27 in 10.0 mi Calm Calm - N/A   Clear
4:55 AM 39.2 °F - 37.4 °F 93% 30.26 in 10.0 mi Calm Calm - N/A   Clear
5:15 AM 37.4 °F - 37.4 °F 100% 30.27 in 10.0 mi Calm Calm - N/A   Clear
5:35 AM 37.4 °F - 37.4 °F 100% 30.26 in 10.0 mi Calm Calm - N/A   Clear
5:55 AM 37.4 °F - 37.4 °F 100% 30.26 in 10.0 mi Calm Calm - N/A   Clear
6:15 AM 37.4 °F - 37.4 °F 100% 30.27 in 10.0 mi Calm Calm - N/A   Clear
6:35 AM 37.4 °F - 37.4 °F 100% 30.28 in 10.0 mi Calm Calm - N/A   Clear
6:55 AM 37.4 °F - 37.4 °F 100% 30.28 in 10.0 mi Calm Calm - N/A   Clear
7:15 AM 37.4 °F - 37.4 °F 100% 30.28 in 10.0 mi Calm Calm - N/A   Clear
7:35 AM 39.2 °F - 37.4 °F 93% 30.28 in 10.0 mi Calm Calm - N/A   Clear
7:55 AM 39.2 °F - 37.4 °F 93% 30.29 in 10.0 mi Calm Calm - N/A   Clear
8:15 AM 42.8 °F - 41.0 °F 93% 30.30 in 10.0 mi Calm Calm - N/A   Clear
8:35 AM 44.6 °F - 41.0 °F 87% 30.29 in 10.0 mi Calm Calm - N/A   Clear
8:55 AM 46.4 °F - 41.0 °F 81% 30.29 in 10.0 mi Calm Calm - N/A   Clear
9:15 AM 48.2 °F - 39.2 °F 71% 30.29 in 10.0 mi South 3.5 mph - N/A   Clear
9:35 AM 50.0 °F - 39.2 °F 66% 30.30 in 10.0 mi South 3.5 mph - N/A   Clear
9:55 AM 50.0 °F - 41.0 °F 71% 30.30 in 10.0 mi SW 4.6 mph - N/A   Clear
10:15 AM 50.0 °F - 37.4 °F 62% 30.30 in 10.0 mi SSW 3.5 mph - N/A   Clear
10:35 AM 51.8 °F - 37.4 °F 58% 30.30 in 10.0 mi SSW 3.5 mph - N/A   Clear
10:55 AM 51.8 °F - 41.0 °F 67% 30.30 in 10.0 mi SSW 5.8 mph - N/A   Clear
11:15 AM 53.6 °F - 39.2 °F 58% 30.30 in 10.0 mi South 8.1 mph - N/A   Clear
11:35 AM 53.6 °F - 37.4 °F 54% 30.30 in 10.0 mi WSW 3.5 mph - N/A   Clear
11:55 AM 55.4 °F - 37.4 °F 51% 30.30 in 10.0 mi SSW 5.8 mph - N/A   Clear
12:15 PM 55.4 °F - 39.2 °F 54% 30.29 in 10.0 mi Calm Calm - N/A   Clear
12:35 PM 55.4 °F - 37.4 °F 51% 30.28 in 10.0 mi Calm Calm - N/A   Clear
12:55 PM 59.0 °F - 39.2 °F 48% 30.28 in 10.0 mi Calm Calm - N/A   Clear
1:15 PM 59.0 °F - 41.0 °F 51% 30.27 in 10.0 mi SSW 4.6 mph - N/A   Clear
1:35 PM 59.0 °F - 39.2 °F 48% 30.26 in 10.0 mi SW 5.8 mph - N/A   Clear
1:55 PM 59.0 °F - 41.0 °F 51% 30.25 in 10.0 mi SSW 4.6 mph - N/A   Clear
2:15 PM 60.8 °F - 41.0 °F 48% 30.25 in 10.0 mi SW 4.6 mph - N/A   Clear
2:35 PM 60.8 °F - 41.0 °F 48% 30.24 in 10.0 mi Calm Calm - N/A   Clear
2:55 PM 62.6 °F - 39.2 °F 42% 30.24 in 10.0 mi SW 3.5 mph - N/A   Clear
3:15 PM 62.6 °F - 41.0 °F 45% 30.23 in 10.0 mi South 5.8 mph - N/A   Clear
3:35 PM 62.6 °F - 37.4 °F 39% 30.23 in 10.0 mi South 4.6 mph - N/A   Clear
3:55 PM 64.4 °F - 41.0 °F 42% 30.22 in 10.0 mi South 4.6 mph - N/A   Clear
4:15 PM 64.4 °F - 37.4 °F 37% 30.21 in 10.0 mi SSE 3.5 mph - N/A   Clear
4:35 PM 64.4 °F - 39.2 °F 40% 30.20 in 10.0 mi SSW 4.6 mph - N/A   Clear
4:55 PM 64.4 °F - 39.2 °F 40% 30.21 in 10.0 mi WSW 3.5 mph - N/A   Clear
5:15 PM 62.6 °F - 37.4 °F 39% 30.20 in 10.0 mi SSW 4.6 mph - N/A   Clear
5:35 PM 64.4 °F - 35.6 °F 34% 30.20 in 10.0 mi SW 4.6 mph - N/A   Clear
5:55 PM 62.6 °F - 35.6 °F 37% 30.19 in 10.0 mi Calm Calm - N/A   Clear
6:15 PM 62.6 °F - 37.4 °F 39% 30.20 in 10.0 mi Calm Calm - N/A   Clear
6:35 PM 62.6 °F - 41.0 °F 45% 30.20 in 10.0 mi Calm Calm - N/A   Clear
6:55 PM 62.6 °F - 41.0 °F 45% 30.20 in 10.0 mi Calm Calm - N/A   Clear
7:15 PM 60.8 °F - 42.8 °F 52% 30.19 in 10.0 mi Calm Calm - N/A   Clear
7:35 PM 59.0 °F - 44.6 °F 59% 30.18 in 10.0 mi Calm Calm - N/A   Clear
7:55 PM 59.0 °F - 41.0 °F 51% 30.18 in 10.0 mi Calm Calm - N/A   Clear
8:15 PM 57.2 °F - 42.8 °F 59% 30.19 in 10.0 mi Calm Calm - N/A   Clear
8:35 PM 55.4 °F - 44.6 °F 67% 30.18 in 10.0 mi Calm Calm - N/A   Clear
8:55 PM 55.4 °F - 44.6 °F 67% 30.18 in 10.0 mi Calm Calm - N/A   Clear
9:15 PM 55.4 °F - 42.8 °F 63% 30.18 in 10.0 mi Calm Calm - N/A   Clear
9:35 PM 55.4 °F - 42.8 °F 63% 30.18 in 10.0 mi Calm Calm - N/A   Clear
9:55 PM 55.4 °F - 41.0 °F 58% 30.16 in 10.0 mi Calm Calm - N/A   Clear
10:15 PM 55.4 °F - 37.4 °F 51% 30.17 in 10.0 mi Calm Calm - N/A   Clear
10:35 PM 53.6 °F - 41.0 °F 62% 30.17 in 10.0 mi SSW 3.5 mph - N/A   Clear
10:55 PM 53.6 °F - 42.8 °F 67% 30.16 in 10.0 mi Calm Calm - N/A   Clear
11:15 PM 53.6 °F - 44.6 °F 72% 30.16 in 10.0 mi SSW 5.8 mph - N/A   Clear
11:35 PM 53.6 °F - 44.6 °F 72% 30.16 in 10.0 mi SSW 8.1 mph - N/A   Clear
11:55 PM 53.6 °F - 44.6 °F 72% 30.15 in 10.0 mi SSW 6.9 mph - N/A   Clear